Location: Izdebno
(52.6670°N, 16.2170°E)
Time: 09:21:01
(UTC+02:00)

A-11 Canister half - Pass Details

Date: 25 February 2024
Orbit: 1513 x 1686 km, 47.2° (Epoch: 24 April)

Event Time Altitude Azimuth Distance (km) Brightness Sun altitude
Exits shadow 01:41:57 30° 110° (ESE) 2,662 10.2 -42.7°
Drops below altitude 10° 01:47:27 10° 83° (E) 3,888 11.4 -42.3°
Sets 01:50:51 0° 75° (ENE) 4,854 12.2 -42.0°
